INTELSAT 33E DEB, 64403

Orbit data source: Space-Track

INTELSAT 33E DEB, 64403 is space debris in GEO originally from a launch on Wed, 24 Aug 2016 UTC launched from the French Guiana (FRGUI). Debris objects in space refer to the collection of defunct objects orbiting the Earth. Examples of debris include non-operational satellites, rocket bodies, and fragments generated from explosions, collisions, or faulty payload assembly.

Not visible in the next 10 days
Identifier
64403, 2016-053AH
Orbit
GEO
Last TLE update
1 day ago
Origin
Flag of UnknownINTELU (Unknown / ITSO)
Manufacturer
Boeing/ES
Mission
Spacecraft
Bus & Motor
Unknown
Mass
Unknown
Launch date (UTC)
2016-08-24 (9 years ago)
Launch vehicle
Unknown
Launch site
French Guiana (FRGUI)
Object type
Payload
Rocket body
Debris
Shape & HBR
Unknown
Radar Cross Section
RCS unknown

Expand to show TLE details & history

TLE from 1 day ago
0 INTELSAT 33E DEB
1 64403U 16053AH  25180.92549636 -.00000360  00000-0  00000-0 0  9992
2 64403   0.6247  45.6509 0062103   2.3167 312.5446  1.00722661  2415
Epoch: 2025-06-29T22:12Z
TLE epoch observation values (Epoch: 2025-06-29T22:12:42.885Z)
Latitude
-0.45515°
Longitude
108.58037°
Altitude
35,485.509 km
Speed
3.092 km/s
True Right ascension
00h 00m 00s
True Declination
0° 27' 17"
Sunlit
Object was in daylight at epoch
Visualization orbit readout
Latitude
0.46306°
Longitude
-72.3405°
Altitude
35,830.059 km
Speed
3.067 km/s
Apparent Right ascension
11h 41m 37s
Apparent Declination
-4° 36' 55"
Sunlit
Object is in daylight
Visualization observer readout
Local Sidereal Time
21:27:38
Azimuth
310.608° NW
Elevation
-43.563°
Doppler factor
1
Orbital elements
Apogee altitude
35,922.823 km
Perigee altitude
35,400.663 km
Semi-major axis
42,039.88 km
Eccentricity
0.00621
Inclination
0.6247°
RAAN
45.6509°
Arg. of periapsis
2.3167°
True anomaly
Unknown
Mean anomaly
312.5446°
Eccentric anomaly
Unknown
Mean motion
0.2518 °/min
Orbital period
1,429.72 mins
BSTAR
0
Loading historical data...
64403 neighbors
Loading maneuver chart data...
Loading SW <> Apogee altitude chart data...
Loading historical data...
Loading historical data...
Loading historical data...
Loading historical data...
Loading historical data...
Loading historical data...
Loading historical data...

INTELSAT 33E DEB Visibility

Observer location: undefined°, undefined°

INTELSAT 33E DEB is likely not visible in the next few days
Span
Click to sort rows by Start time (UTC) header in descending order
Start Az.
Max El. time (UTC)
Max El. Az.
Max El.
End time (UTC)
End Az.
|